Regional Weather Roundup
Issued by NWS Spokane, WA

Home | Current Version | Previous Version | Text Only | Print | Product List | Glossary On
Versions: 1 2 3 4 5 6 7 8 9 10 11 12 13 14 15 16 17 18 19 20 21 22 23 24 25 26 27 28 29 30 31 32 33 34 35 36 37 38 39 40 41 42 43 44 45 46 47 48 49 50
000
NZUS01 KOTX 190410
RWROTX
EASTERN WASHINGTON/NORTHERN IDAHO ROUNDUP
NATIONAL WEATHER SERVICE, SPOKANE WA
900 PM PDT FRI APR 18 2014

Note: "fair" indicated few or no clouds below 12,000 feet with no
significant weather and/or obstructions to visibility.

...NORTHEAST WASHINGTON AND NORTHERN IDAHO PANHANDLE...

CITY           SKY/WX    TMP DP  RH WIND       PRES   REMARKS
SPOKANE INTL   PTCLDY    45  22  40 S8        29.96S
SPOKANE DOWNTO PTCLDY    43  27  53 CALM      29.98R
COEUR D ALENE  CLEAR     45  25  45 S9        29.99R
DEER PARK      CLEAR     43  26  51 S6        29.96S
SANDPOINT      CLOUDY    41  36  81 CALM      29.97R

...SOUTHEAST WASHINGTON AND SOUTHERN IDAHO PANHANDLE...

CITY           SKY/WX    TMP DP  RH WIND       PRES   REMARKS
WALLA WALLA    CLEAR     47  33  58 E7        29.99S
PULLMAN/MOSCOW MOCLDY    41  27  57 NW5       30.01S
LEWISTON       PTCLDY    46  27  47 E7        30.00S
LOWELL           N/A     43  36  76 CALM      30.05R

...COLUMBIA BASIN...

CITY           SKY/WX    TMP DP  RH WIND       PRES   REMARKS
EPHRATA        CLEAR     50  21  32 VRB7      29.95R
MOSES LAKE     CLEAR     49  24  37 W6        29.96S
TRI CITIES     CLEAR     49  32  52 CALM      29.98S
HERMISTON      PTCLDY    42  33  70 SE6       29.97S
PENDLETON      PTCLDY    45  31  58 NE5       29.97S

...EAST SLOPES CASCADES...

CITY           SKY/WX    TMP DP  RH WIND       PRES   REMARKS
THE DALLES     PTCLDY    51  37  58 CALM      29.95F
YAKIMA         PTCLDY    48  29  47 CALM      29.98R
ELLENSBURG     PTCLDY    43  28  55 NW13      29.97S
WENATCHEE      CLEAR     49  23  36 N6        29.97R
OMAK           CLEAR     48  19  31 NW7       29.92R

...SOUTHERN BRITISH COLUMBIA...

CITY           SKY/WX    TMP DP  RH WIND       PRES   REMARKS
PENTICTON      PTCLDY    46  25  42 NE5       29.97R
CASTLEGAR      PTCLDY    43  34  70 N7        29.96R
CRANBROOK      PTCLDY    41  27  56 SW8       29.91R

...WESTERN MONTANA...

CITY           SKY/WX    TMP DP  RH WIND       PRES   REMARKS
MISSOULA       CLEAR     38  22  52 N7        30.02R

...NEIGHBORING CITIES...

CITY           SKY/WX    TMP DP  RH WIND       PRES   REMARKS
SEATTLE        MOCLDY    53  35  50 NE7       29.99F
CALGARY        PTCLDY    30  28  93 N3        29.80R



USA.gov is the U.S. government's official web portal to all federal, state and local government web resources and services.